Weather History for KTYQ - February, 2012

Change the Weather History Date:

Thursday, February 9, 2012

  Actual Average (KEYE) Record (KEYE)
Temperature  
Mean Temperature 28 °F 30 °F  
Max Temperature 31 °F 38 °F 61 °F (2001)
Min Temperature 24 °F 23 °F 1 °F (2007)
Degree Days  
Heating Degree Days 38 35  
Month to date heating degree days 319  
Since 1 July heating degree days 3520  
Cooling Degree Days 0 0  
Month to date cooling degree days 0  
Year to date cooling degree days 0  
Moisture  
Dew Point 22 °F    
Average Humidity 76    
Maximum Humidity 86    
Minimum Humidity 67    
Precipitation  
Precipitation 0.00 in 0.08 in 0.67 in (2001)
Month to date precipitation 0.60  
Year to date precipitation 2.81  
Sea Level Pressure  
Sea Level Pressure 30.29 in    
Wind  
Wind Speed 7 mph (WSW)    
Max Wind Speed 13 mph    
Max Gust Speed 17 mph    
Visibility 10 miles    
Events      
T = Trace of Precipitation, MM = Missing Value Source: NWS Daily Summary

Daily Weather History Graph

Daily Weather History Graph

Search for Another Location

Airport or City:

Trip Planner

Search our weather history database for the weather conditions in past years. The results will help you decide how hot, cold, wet, or windy it might be!

Date:

Astronomy

Feb. 09, 2012 Rise Set
Actual Time 7:45 AM EST 6:13 PM EST
Civil Twilight 7:17 AM EST 6:41 PM EST
Nautical Twilight 6:45 AM EST 7:13 PM EST
Astronomical Twilight 6:14 AM EST 7:44 PM EST
Moon 8:41 PM EST (2/9) 8:21 AM EST (2/9)
Length of Visible Light 11h 23m
Length of Day
10h 27m
Waning Gibbous, 96% of the Moon is Illuminated
Feb 9
Waning Gibbous
Feb 14
Last Quarter
Feb 21
New
Feb 29
First Quarter
Mar 8
Full

Hourly Weather History & Observations

Time (EST) Temp. Windchill Dew Point Humidity Pressure Visibility Wind Dir Wind Speed Gust Speed Precip Events Conditions
12:15 AM 30.2 °F 24.3 °F 26.4 °F 86% 30.32 in 10.0 mi WNW 5.8 mph - N/A   Overcast
12:35 AM 30.0 °F 22.4 °F 25.7 °F 84% 30.32 in 10.0 mi WNW 8.1 mph - N/A   Overcast
12:55 AM 29.7 °F 23.7 °F 25.3 °F 84% 30.32 in 10.0 mi WNW 5.8 mph - N/A   Overcast
1:15 AM 29.3 °F 24.3 °F 25.3 °F 85% 30.32 in 10.0 mi WNW 4.6 mph - N/A   Overcast
1:35 AM 29.3 °F 20.8 °F 25.3 °F 85% 30.32 in 10.0 mi WNW 9.2 mph - N/A   Overcast
1:55 AM 28.4 °F 22.2 °F 23.5 °F 82% 30.33 in 10.0 mi WNW 5.8 mph - N/A   Overcast
2:15 AM 27.9 °F 20.6 °F 23.4 °F 83% 30.33 in 10.0 mi West 6.9 mph - N/A   Overcast
2:35 AM 28.2 °F 23.1 °F 23.4 °F 82% 30.33 in 10.0 mi WNW 4.6 mph - N/A   Overcast
2:55 AM 27.5 °F 22.2 °F 23.0 °F 83% 30.32 in 10.0 mi WNW 4.6 mph - N/A   Overcast
3:15 AM 26.6 °F 19.1 °F 22.5 °F 84% 30.31 in 10.0 mi WNW 6.9 mph - N/A   Scattered Clouds
3:35 AM 26.2 °F 19.6 °F 21.2 °F 81% 30.31 in 10.0 mi WNW 5.8 mph - N/A   Clear
3:55 AM 25.7 °F 18.0 °F 21.2 °F 83% 30.32 in 10.0 mi West 6.9 mph - N/A   Scattered Clouds
4:15 AM 25.7 °F 20.1 °F 21.0 °F 82% 30.32 in 10.0 mi WNW 4.6 mph - N/A   Mostly Cloudy
4:35 AM 25.7 °F 19.0 °F 21.2 °F 83% 30.31 in 10.0 mi WNW 5.8 mph - N/A   Overcast
5:15 AM 24.8 °F 19.1 °F 20.7 °F 84% 30.30 in 10.0 mi West 4.6 mph - N/A   Mostly Cloudy
5:35 AM 25.2 °F 19.5 °F 21.0 °F 84% 30.30 in 10.0 mi WNW 4.6 mph - N/A   Mostly Cloudy
5:55 AM 25.7 °F 18.0 °F 21.2 °F 83% 30.31 in 10.0 mi West 6.9 mph - N/A   Overcast
6:15 AM 26.6 °F 18.2 °F 20.5 °F 78% 30.31 in 10.0 mi West 8.1 mph - N/A   Overcast
6:35 AM 26.8 °F 17.7 °F 19.4 °F 74% 30.31 in 10.0 mi West 9.2 mph - N/A   Overcast
6:55 AM 27.0 °F 20.5 °F 19.6 °F 74% 30.31 in 10.0 mi West 5.8 mph - N/A   Overcast
7:15 AM 26.6 °F 18.2 °F 19.4 °F 74% 30.31 in 10.0 mi WNW 8.1 mph - N/A   Overcast
7:35 AM 26.6 °F 19.1 °F 19.6 °F 75% 30.31 in 10.0 mi WNW 6.9 mph - N/A   Overcast
7:55 AM 26.6 °F 21.2 °F 19.6 °F 75% 30.31 in 10.0 mi West 4.6 mph - N/A   Overcast
8:15 AM 26.6 °F 19.1 °F 19.4 °F 74% 30.32 in 10.0 mi West 6.9 mph - N/A   Overcast
8:35 AM 26.6 °F 18.2 °F 19.4 °F 74% 30.33 in 10.0 mi WNW 8.1 mph - N/A   Overcast
8:55 AM 26.6 °F 18.2 °F 19.4 °F 74% 30.33 in 10.0 mi West 8.1 mph - N/A   Overcast
9:15 AM 27.1 °F 19.7 °F 19.8 °F 74% 30.34 in 10.0 mi West 6.9 mph - N/A   Overcast
9:35 AM 27.3 °F 20.9 °F 19.6 °F 73% 30.33 in 10.0 mi SW 5.8 mph - N/A   Overcast
9:55 AM 27.5 °F 19.3 °F 20.3 °F 74% 30.33 in 10.0 mi WSW 8.1 mph - N/A   Overcast
10:15 AM 27.3 °F 19.1 °F 21.4 °F 78% 30.33 in 10.0 mi West 8.1 mph - N/A   Overcast
10:35 AM 27.3 °F 22.0 °F 21.7 °F 80% 30.33 in 10.0 mi West 4.6 mph - N/A   Overcast
10:55 AM 27.5 °F 18.6 °F 21.4 °F 78% 30.33 in 10.0 mi West 9.2 mph - N/A   Overcast
11:15 AM 27.7 °F 18.2 °F 20.1 °F 73% 30.33 in 10.0 mi SSW 10.4 mph - N/A   Overcast
11:35 AM 28.4 °F 19.1 °F 21.0 °F 74% 30.33 in 10.0 mi WSW 10.4 mph - N/A   Overcast
11:55 AM 28.9 °F 19.2 °F 21.4 °F 73% 30.33 in 7.0 mi WSW 11.5 mph - N/A   Overcast
12:15 PM 29.1 °F 19.4 °F 22.1 °F 75% 30.31 in 10.0 mi SW 11.5 mph - N/A   Overcast
12:35 PM 28.8 °F 20.2 °F 22.6 °F 78% 30.30 in 10.0 mi SSW 9.2 mph - N/A   Overcast
12:55 PM 28.9 °F 21.1 °F 21.7 °F 74% 30.29 in 10.0 mi SW 8.1 mph - N/A   Overcast
1:15 PM 29.1 °F 18.9 °F 20.3 °F 70% 30.28 in 10.0 mi West 12.7 mph 17.3 mph N/A   Overcast
1:35 PM 30.0 °F 21.7 °F 21.4 °F 70% 30.27 in 10.0 mi SW 9.2 mph 16.1 mph N/A   Overcast
1:55 PM 29.7 °F 21.3 °F 20.7 °F 69% 30.26 in 10.0 mi SW 9.2 mph 16.1 mph N/A   Overcast
2:15 PM 30.0 °F 22.4 °F 21.7 °F 71% 30.25 in 10.0 mi SW 8.1 mph - N/A   Overcast
2:35 PM 30.2 °F 21.9 °F 21.9 °F 71% 30.25 in 10.0 mi WSW 9.2 mph - N/A   Overcast
2:55 PM 30.2 °F 20.2 °F 21.6 °F 70% 30.24 in 10.0 mi WSW 12.7 mph 17.3 mph N/A   Overcast
3:15 PM 30.2 °F 21.3 °F 22.1 °F 72% 30.24 in 10.0 mi SSW 10.4 mph - N/A   Overcast
3:35 PM 30.2 °F 21.9 °F 22.1 °F 72% 30.23 in 10.0 mi South 9.2 mph - N/A   Overcast
3:55 PM 30.7 °F 23.3 °F 21.6 °F 69% 30.23 in 10.0 mi SW 8.1 mph - N/A   Overcast
4:15 PM 31.1 °F 24.5 °F 21.9 °F 69% 30.23 in 10.0 mi SSW 6.9 mph - N/A   Overcast
4:35 PM 31.1 °F 23.1 °F 22.3 °F 70% 30.22 in 10.0 mi WSW 9.2 mph - N/A   Overcast
4:55 PM 31.1 °F 23.7 °F 21.9 °F 69% 30.22 in 10.0 mi SSW 8.1 mph - N/A   Overcast
5:15 PM 31.1 °F 24.5 °F 21.4 °F 67% 30.21 in 10.0 mi WSW 6.9 mph - N/A   Overcast
5:35 PM 31.1 °F 23.1 °F 21.9 °F 69% 30.21 in 10.0 mi SW 9.2 mph - N/A   Overcast
5:55 PM 30.9 °F 24.3 °F 21.9 °F 69% 30.21 in 10.0 mi SW 6.9 mph - N/A   Overcast
6:15 PM 31.1 °F 25.4 °F 21.9 °F 69% 30.20 in 10.0 mi SW 5.8 mph - N/A   Overcast
6:35 PM 30.9 °F 23.5 °F 22.1 °F 70% 30.19 in 10.0 mi SW 8.1 mph - N/A   Overcast
6:55 PM 30.6 °F 21.8 °F 21.6 °F 69% 30.19 in 10.0 mi SSW 10.4 mph - N/A   Mostly Cloudy
7:15 PM 29.1 °F 22.1 °F 21.2 °F 72% 30.20 in 10.0 mi SSW 6.9 mph - N/A   Scattered Clouds
7:35 PM 28.8 °F 22.6 °F 20.8 °F 72% 30.19 in 10.0 mi SSW 5.8 mph - N/A   Clear
7:55 PM 27.5 °F 20.2 °F 20.8 °F 76% 30.20 in 10.0 mi SSW 6.9 mph - N/A   Scattered Clouds
8:15 PM 27.5 °F 21.1 °F 21.2 °F 77% 30.20 in 10.0 mi SSW 5.8 mph - N/A   Mostly Cloudy
8:35 PM 28.2 °F 22.0 °F 21.7 °F 77% 30.19 in 10.0 mi South 5.8 mph - N/A   Overcast
8:55 PM 28.8 °F 21.7 °F 22.1 °F 76% 30.19 in 10.0 mi South 6.9 mph - N/A   Overcast
9:15 PM 28.4 °F 22.2 °F 22.1 °F 77% 30.19 in 10.0 mi SSW 5.8 mph - N/A   Overcast
9:35 PM 29.3 °F 22.3 °F 22.5 °F 76% 30.19 in 10.0 mi SSW 6.9 mph - N/A   Overcast
9:55 PM 29.3 °F 23.2 °F 22.6 °F 76% 30.19 in 10.0 mi SSW 5.8 mph - N/A   Overcast
10:15 PM 29.7 °F 23.7 °F 23.0 °F 76% 30.20 in 10.0 mi SSW 5.8 mph - N/A   Overcast
10:35 PM 30.0 °F 24.1 °F 23.0 °F 75% 30.19 in 10.0 mi SSW 5.8 mph - N/A   Overcast
10:55 PM 30.0 °F 25.2 °F 23.2 °F 76% 30.18 in 10.0 mi SSW 4.6 mph - N/A   Overcast
11:15 PM 29.3 °F 25.6 °F 23.5 °F 79% 30.18 in 10.0 mi SSW 3.5 mph - N/A   Overcast
11:35 PM 29.7 °F 24.7 °F 23.5 °F 78% 30.18 in 10.0 mi SSW 4.6 mph - N/A   Overcast
11:55 PM 30.0 °F 24.1 °F 23.7 °F 77% 30.17 in 10.0 mi SW 5.8 mph - N/A   Overcast